星链-34576 (STARLINK-34576)

导读

STARLINK-34576是美国太空探索技术公司SpaceX于2025年6月28日发射的星链项目卫星,部署于近地轨道,属于全球卫星互联网星座组网的一环。该星链卫星旨在为全球尤其是基础设施匮乏的偏远地区提供低时延、高速宽带互联网接入服务,依托星座规模化部署优势,可支撑视频通话、在线游戏等应用,进一步拓展了星链网络的全球覆盖能力。

基本信息
目录编号:
64701
目录名称:
STARLINK-34576
国际标识:
2025-142F
轨道中心:
EARTH
卫星名称:
星链-34576
卫星全名:
星链-34576 (STARLINK-34576)
卫星状态:
在轨 (已飞行433 天)
发射日期:
2025-06-28 UTC
国别 :
美国 (US)
星等 :
--
轨道信息
数据来源 国际轨道数据
星历时间: 2026-09-04T12:00:02+0800
8小时前
查看轨道信息
半长轴: 6867.677km
偏心率: 0.000146
轨道倾角: 70.000°
近地点辐角 260.703°
升交点赤经 223.991°
平近点角 179.127°
近地点: 488.537km
远地点: 490.543km
周期: 94.401分钟
每日圈数: 15.254149
详细信息
固有亮度:
5
最大亮度:
2.5
卫星平台:
Starlink V1.0
覆盖范围:
全球
运营商:
太空探索技术公司
运营商所在国:
美国
制造商(研发单位):
太空探索技术公司
制造商所在国:
美国
使用方式:
暂无
卫星简介
Starlink 计划是 SpaceX 推出的全球卫星互联网项目,通过发射低轨道卫星,为全球尤其是偏远地区提供高速、低延迟的互联网服务。自 2019 年起,Starlink 已部署数千颗卫星,旨在缩小全球数字鸿沟,推动互联网普及。该项目还为军事、航空等行业提供通信支持,带来广泛经济效益。
2D轨道图
3D轨道图
轨道高度分析图
轨道倾角分析图
轨道综合分析图
查看轨道综合分析图